Location: Beadle
(51.4667°N, 109.0000°W)
Time: 10:46:49
(UTC+00:00)

deb Explorer IX - Pass Details

Date: 31 May 2022
Orbit: 535 x 1068 km, 38.8° (Epoch: 04 July)

Event Time Altitude Azimuth Distance (km) Brightness Sun altitude
Rises 19:52:01 0° 257° (WSW) 3,801 ? 59.6°
Reaches altitude 10° 19:55:22 10° 244° (WSW) 2,793 ? 59.4°
Maximum altitude 20:00:29 23° 195° (SSW) 1,894 ? 59.2°
Drops below altitude 10° 20:05:11 10° 145° (SE) 2,539 ? 58.9°
Sets 20:08:05 0° 131° (SE) 3,379 ? 58.7°
